TimeAEST,TemperatureF,Dew PointF,Humidity,Sea Level PressureIn,VisibilityMPH,Wind Direction,Wind SpeedMPH,Gust SpeedMPH,PrecipitationIn,Events,Conditions,WindDirDegrees,DateUTC
12:00 AM,41,37,81,29.99,,NW,8.1,,,,Overcast,320,2013-08-21 14:00:00
12:00 AM,41.0,37.4,87,29.95,6.2,NW,8.1,-,N/A,Rain,Light Rain Showers,320,2013-08-21 14:00:00
12:30 AM,39.2,35.6,87,29.95,6.2,North,11.5,-,N/A,,Mostly Cloudy,350,2013-08-21 14:30:00
1:00 AM,40,37,83,29.97,,NNW,8.1,,,,,330,2013-08-21 15:00:00
1:00 AM,41.0,37.4,87,29.95,6.2,NNW,8.1,-,N/A,,Mostly Cloudy,330,2013-08-21 15:00:00
1:30 AM,41.0,35.6,81,29.92,6.2,North,8.1,-,N/A,,Overcast,10,2013-08-21 15:30:00
2:00 AM,39.2,37.4,93,29.92,6.2,NNW,13.8,-,N/A,,Scattered Clouds,330,2013-08-21 16:00:00
2:30 AM,41.0,35.6,81,29.89,6.2,North,15.0,-,N/A,,Scattered Clouds,360,2013-08-21 16:30:00
3:00 AM,40,37,83,29.93,,North,10.4,,,,Overcast,0,2013-08-21 17:00:00
3:00 AM,39.2,37.4,93,29.89,6.2,North,10.4,-,N/A,,Mostly Cloudy,350,2013-08-21 17:00:00
3:30 AM,39.2,37.4,93,29.89,6.2,North,9.2,-,N/A,,Mostly Cloudy,360,2013-08-21 17:30:00
4:00 AM,40,37,84,29.91,,North,10.4,,,,,0,2013-08-21 18:00:00
4:00 AM,39.2,37.4,93,29.89,6.2,North,10.4,-,N/A,,Mostly Cloudy,360,2013-08-21 18:00:00
4:30 AM,41.0,37.4,87,29.86,6.2,NNW,12.7,-,N/A,,Mostly Cloudy,340,2013-08-21 18:30:00
5:00 AM,41.0,37.4,87,29.89,6.2,North,11.5,-,N/A,,Mostly Cloudy,350,2013-08-21 19:00:00
5:30 AM,41.0,35.6,81,29.89,6.2,NW,11.5,-,N/A,,Mostly Cloudy,310,2013-08-21 19:30:00
6:00 AM,42,36,73,29.92,,NW,8.1,,,,Overcast,320,2013-08-21 20:00:00
6:00 AM,41.0,35.6,81,29.89,6.2,NW,8.1,-,N/A,,Mostly Cloudy,320,2013-08-21 20:00:00
6:30 AM,41.0,37.4,87,29.89,6.2,NNW,9.2,-,N/A,,Mostly Cloudy,340,2013-08-21 20:30:00
7:00 AM,41.0,37.4,87,29.89,6.2,NW,11.5,-,N/A,,Overcast,320,2013-08-21 21:00:00
7:30 AM,42.8,37.4,81,29.89,6.2,NNW,12.7,-,N/A,,Mostly Cloudy,330,2013-08-21 21:30:00
8:00 AM,42.8,37.4,81,29.89,6.2,NNW,16.1,-,N/A,,Scattered Clouds,340,2013-08-21 22:00:00
8:30 AM,44.6,37.4,76,29.89,6.2,NNW,18.4,-,N/A,,Scattered Clouds,330,2013-08-21 22:30:00
9:00 AM,47,40,67,29.92,,NNW,17.3,,,,Overcast,330,2013-08-21 23:00:00
9:00 AM,46.4,39.2,76,29.89,6.2,NNW,17.3,-,N/A,,Scattered Clouds,330,2013-08-21 23:00:00
9:30 AM,44.6,37.4,76,29.89,6.2,NNW,20.7,-,N/A,,Overcast,330,2013-08-21 23:30:00
9:57 AM,46.4,39.2,76,29.89,6.2,NNW,17.3,-,N/A,,Mostly Cloudy,330,2013-08-21 23:57:00
10:00 AM,46.4,39.2,76,29.89,6.2,NNW,17.3,-,N/A,,Mostly Cloudy,330,2013-08-22 00:00:00
10:17 AM,46.4,39.2,76,29.86,6.2,NW,19.6,-,N/A,,Mostly Cloudy,310,2013-08-22 00:17:00
10:30 AM,46.4,37.4,71,29.86,6.2,NW,21.9,-,N/A,,Mostly Cloudy,310,2013-08-22 00:30:00
11:00 AM,46.4,37.4,71,29.86,6.2,NW,21.9,-,N/A,,Mostly Cloudy,320,2013-08-22 01:00:00
11:11 AM,46.4,37.4,71,29.86,6.2,NNW,19.6,-,N/A,,Mostly Cloudy,330,2013-08-22 01:11:00
11:30 AM,46.4,39.2,76,29.86,6.2,NW,19.6,-,N/A,,Mostly Cloudy,320,2013-08-22 01:30:00
12:00 PM,47,40,67,29.89,,NW,19.6,,,,Overcast,320,2013-08-22 02:00:00
12:00 PM,46.4,39.2,76,29.86,6.2,NW,19.6,-,N/A,Rain,Light Rain Showers,310,2013-08-22 02:00:00
12:30 PM,46.4,39.2,76,29.83,6.2,NNW,16.1,-,N/A,,Mostly Cloudy,330,2013-08-22 02:30:00
1:00 PM,48,39,61,29.85,,WNW,16.1,,,,,300,2013-08-22 03:00:00
1:00 PM,48.2,39.2,71,29.83,6.2,WNW,16.1,-,N/A,,Mostly Cloudy,300,2013-08-22 03:00:00
1:30 PM,48.2,37.4,66,29.80,6.2,WNW,17.3,-,N/A,,Mostly Cloudy,300,2013-08-22 03:30:00
2:00 PM,48.2,33.8,58,29.80,6.2,WNW,19.6,-,N/A,,Mostly Cloudy,290,2013-08-22 04:00:00
2:30 PM,50.0,35.6,58,29.80,6.2,WNW,15.0,-,N/A,,Mostly Cloudy,300,2013-08-22 04:30:00
3:00 PM,51,35,41,29.83,,West,18.4,,,,Overcast,270,2013-08-22 05:00:00
3:00 PM,50.0,33.8,54,29.80,6.2,West,18.4,-,N/A,,Scattered Clouds,270,2013-08-22 05:00:00
3:30 PM,50.0,37.4,62,29.80,6.2,NW,18.4,-,N/A,,Mostly Cloudy,310,2013-08-22 05:30:00
4:00 PM,47,40,67,29.83,,WNW,19.6,,,,,300,2013-08-22 06:00:00
4:00 PM,46.4,39.2,76,29.80,6.2,WNW,19.6,-,N/A,Rain,Light Rain Showers,300,2013-08-22 06:00:00
4:30 PM,46.4,39.2,76,29.80,6.2,WNW,16.1,-,N/A,,Scattered Clouds,300,2013-08-22 06:30:00
5:00 PM,44.6,39.2,81,29.80,6.2,NW,15.0,-,N/A,,Partly Cloudy,320,2013-08-22 07:00:00
5:30 PM,44.6,39.2,81,29.80,6.2,NW,12.7,-,N/A,,Scattered Clouds,320,2013-08-22 07:30:00
6:00 PM,43,39,81,29.84,,NNW,16.1,,,,Overcast,330,2013-08-22 08:00:00
6:00 PM,42.8,39.2,87,29.80,6.2,NNW,16.1,-,N/A,,Scattered Clouds,330,2013-08-22 08:00:00
6:30 PM,44.6,39.2,81,29.80,6.2,NW,15.0,-,N/A,,Partly Cloudy,310,2013-08-22 08:30:00
7:00 PM,44,42,89,29.87,,West,10.4,,,,,280,2013-08-22 09:00:00
7:00 PM,44.6,42.8,93,29.83,6.2,West,10.4,-,N/A,Rain,Light Rain Showers,280,2013-08-22 09:00:00
7:30 PM,42.8,39.2,87,29.83,6.2,WNW,13.8,-,N/A,,Scattered Clouds,300,2013-08-22 09:30:00
8:00 PM,42.8,39.2,87,29.86,6.2,WNW,12.7,-,N/A,,Scattered Clouds,300,2013-08-22 10:00:00
8:30 PM,42.8,41.0,93,29.83,6.2,NNW,10.4,-,N/A,,Scattered Clouds,340,2013-08-22 10:30:00
9:00 PM,44.6,41.0,87,29.83,6.2,NW,11.5,-,N/A,Rain,Light Rain Showers,310,2013-08-22 11:00:00
9:30 PM,42.8,41.0,93,29.83,6.2,NW,13.8,-,N/A,Rain,Light Rain Showers,310,2013-08-22 11:30:00
10:00 PM,42.8,41.0,93,29.83,6.2,WNW,16.1,-,N/A,Rain,Light Rain Showers,300,2013-08-22 12:00:00
10:30 PM,44.6,39.2,81,29.83,6.2,NW,12.7,-,N/A,Rain,Light Rain Showers,310,2013-08-22 12:30:00
11:00 PM,44.6,41.0,87,29.80,6.2,NW,19.6,-,N/A,Rain,Light Rain Showers,310,2013-08-22 13:00:00
11:30 PM,44.6,41.0,87,29.80,6.2,NNW,16.1,-,N/A,,Mostly Cloudy,330,2013-08-22 13:30:00